• In Lithuania
  • List of Countries
  • For 7 days
  • Water Temperature
  • Satellite Maps
  • Weather Map
  • Weather Widgets
  • user-avatar
    Login

    Hourly Weather Solden

    Today, 22 October, Sunday

    Time Temperature Precipitation Wind Pressure Humidity
    00:00 +1°C° 0 mm 1 mps 582 mmHg 80%
    01:00 +2°C° 0 mm 1 mps 582 mmHg 85%
    02:00 +2°C° 0.4 mm 1 mps 582 mmHg 86%
    03:00 +2°C° 0.4 mm 1 mps 582 mmHg 88%
    04:00 +2°C° 0.4 mm 1 mps 582 mmHg 89%
    05:00 +2°C° 0.8 mm 1 mps 581 mmHg 90%
    06:00 +2°C° 0.8 mm 1 mps 581 mmHg 90%
    07:00 +2°C° 0.8 mm 1 mps 581 mmHg 91%
    08:00 +1°C° 1.1 mm 2 mps 581 mmHg 90%
    09:00 +1°C° 1.1 mm 2 mps 581 mmHg 88%
    10:00 +1°C° 1.1 mm 2 mps 581 mmHg 86%
    11:00 0°C° 1.2 mm 3 mps 580 mmHg 86%
    12:00 -1°C° 1.2 mm 3 mps 580 mmHg 87%
    13:00 -1°C° 1.2 mm 3 mps 579 mmHg 87%
    14:00 -2°C° 1 mm 3 mps 579 mmHg 86%
    15:00 -4°C° 1 mm 3 mps 578 mmHg 86%
    16:00 -5°C° 1 mm 3 mps 578 mmHg 86%
    17:00 -5°C° 0.4 mm 3 mps 578 mmHg 86%
    18:00 -5°C° 0.4 mm 3 mps 578 mmHg 86%
    19:00 -6°C° 0.4 mm 3 mps 578 mmHg 86%
    20:00 -6°C° 0.2 mm 3 mps 578 mmHg 85%
    21:00 -6°C° 0.2 mm 3 mps 578 mmHg 84%
    22:00 -6°C° 0.2 mm 3 mps 578 mmHg 84%
    23:00 -6°C° 0.1 mm 3 mps 578 mmHg 84%

    Tomorrow, 23 October, Monday

    Time Temperature Precipitation Wind Pressure Humidity
    00:00 -7°C° 0.1 mm 3 mps 578 mmHg 84%
    01:00 -7°C° 0.1 mm 3 mps 578 mmHg 84%
    02:00 -7°C° 0.1 mm 3 mps 578 mmHg 84%
    03:00 -8°C° 0.1 mm 3 mps 578 mmHg 85%
    04:00 -8°C° 0.1 mm 3 mps 578 mmHg 86%
    05:00 -8°C° 0.1 mm 3 mps 578 mmHg 86%
    06:00 -8°C° 0.1 mm 3 mps 578 mmHg 85%
    07:00 -8°C° 0.1 mm 3 mps 578 mmHg 85%
    08:00 -7°C° 0.2 mm 3 mps 579 mmHg 79%
    09:00 -5°C° 0.2 mm 3 mps 580 mmHg 74%
    10:00 -2°C° 0.2 mm 3 mps 581 mmHg 69%
    11:00 -2°C° 0.2 mm 3 mps 581 mmHg 67%
    12:00 -1°C° 0.2 mm 3 mps 581 mmHg 66%
    13:00 -1°C° 0.2 mm 3 mps 582 mmHg 64%
    14:00 -1°C° 0.1 mm 3 mps 582 mmHg 66%
    15:00 -1°C° 0.1 mm 3 mps 582 mmHg 68%
    16:00 -2°C° 0.1 mm 3 mps 581 mmHg 70%
    17:00 -4°C° 0.2 mm 3 mps 581 mmHg 74%
    18:00 -5°C° 0.2 mm 3 mps 581 mmHg 78%
    19:00 -6°C° 0.2 mm 3 mps 581 mmHg 82%
    20:00 -6°C° 0.3 mm 3 mps 581 mmHg 82%
    21:00 -6°C° 0.3 mm 3 mps 582 mmHg 83%
    22:00 -6°C° 0.3 mm 3 mps 582 mmHg 83%
    23:00 -6°C° 0.2 mm 3 mps 582 mmHg 84%

    Day after tomorrow, 24 October, Tuesday

    Time Temperature Precipitation Wind Pressure Humidity
    00:00 -6°C° 0.2 mm 3 mps 582 mmHg 84%
    01:00 -6°C° 0.2 mm 3 mps 582 mmHg 85%
    02:00 -6°C° 0 mm 3 mps 582 mmHg 85%
    03:00 -7°C° 0 mm 3 mps 582 mmHg 85%
    04:00 -7°C° 0 mm 3 mps 582 mmHg 86%
    05:00 -7°C° 0 mm 3 mps 582 mmHg 86%
    06:00 -7°C° 0 mm 3 mps 582 mmHg 86%
    07:00 -7°C° 0 mm 3 mps 582 mmHg 86%
    08:00 -5°C° 0 mm 3 mps 584 mmHg 80%
    09:00 -2°C° 0 mm 3 mps 585 mmHg 75%
    10:00 0°C° 0 mm 3 mps 586 mmHg 70%
    11:00 +1°C° 0 mm 3 mps 586 mmHg 68%
    12:00 +2°C° 0 mm 3 mps 587 mmHg 67%
    13:00 +4°C° 0 mm 2 mps 587 mmHg 66%
    14:00 +4°C° 0 mm 2 mps 587 mmHg 69%
    15:00 +3°C° 0 mm 2 mps 586 mmHg 72%
    16:00 +3°C° 0 mm 2 mps 586 mmHg 76%
    17:00 +1°C° 0 mm 2 mps 586 mmHg 79%
    18:00 -2°C° 0 mm 2 mps 585 mmHg 83%
    19:00 -3°C° 0 mm 2 mps 585 mmHg 87%
    20:00 -4°C° 0 mm 2 mps 585 mmHg 84%
    21:00 -4°C° 0 mm 2 mps 585 mmHg 82%
    22:00 -4°C° 0 mm 2 mps 585 mmHg 79%
    23:00 -3°C° 0 mm 2 mps 585 mmHg 77%

    25 October, Wednesday

    Time Temperature Precipitation Wind Pressure Humidity
    00:00 -3°C° 0 mm 2 mps 585 mmHg 76%
    01:00 -3°C° 0 mm 2 mps 585 mmHg 74%
    02:00 -1°C° 0 mm 1 mps 585 mmHg 73%
    03:00 -1°C° 0 mm 1 mps 585 mmHg 73%
    04:00 -1°C° 0 mm 1 mps 585 mmHg 72%
    05:00 0°C° 0 mm 1 mps 585 mmHg 71%
    06:00 0°C° 0 mm 1 mps 586 mmHg 71%
    07:00 0°C° 0 mm 1 mps 586 mmHg 70%
    08:00 +2°C° 0 mm 1 mps 587 mmHg 69%
    09:00 +5°C° 0 mm 1 mps 588 mmHg 67%
    10:00 +6°C° 0 mm 0 mps 590 mmHg 65%
    11:00 +7°C° 0 mm 0 mps 590 mmHg 64%
    12:00 +8°C° 0 mm 0 mps 590 mmHg 62%
    13:00 +10°C° 0 mm 1 mps 591 mmHg 61%
    14:00 +9°C° 0 mm 1 mps 590 mmHg 64%
    15:00 +8°C° 0 mm 1 mps 590 mmHg 67%
    16:00 +7°C° 0 mm 1 mps 589 mmHg 70%
    17:00 +6°C° 0 mm 1 mps 589 mmHg 71%
    18:00 +4°C° 0 mm 1 mps 588 mmHg 73%
    19:00 +3°C° 0 mm 1 mps 588 mmHg 74%
    20:00 +3°C° 0 mm 1 mps 588 mmHg 72%
    21:00 +3°C° 0 mm 1 mps 588 mmHg 70%
    22:00 +2°C° 0 mm 1 mps 588 mmHg 69%
    23:00 +2°C° 0 mm 1 mps 588 mmHg 67%

    26 October, Thursday

    Time Temperature Precipitation Wind Pressure Humidity
    00:00 +2°C° 0 mm 1 mps 588 mmHg 66%
    01:00 +2°C° 0 mm 1 mps 588 mmHg 65%
    02:00 +2°C° 0 mm 1 mps 588 mmHg 64%
    03:00 +2°C° 0 mm 1 mps 588 mmHg 64%
    04:00 +1°C° 0 mm 1 mps 588 mmHg 64%
    05:00 +1°C° 0 mm 1 mps 588 mmHg 63%
    06:00 +1°C° 0 mm 1 mps 588 mmHg 63%
    07:00 +1°C° 0 mm 1 mps 588 mmHg 62%
    08:00 +4°C° 0 mm 1 mps 589 mmHg 61%
    09:00 +7°C° 0 mm 1 mps 590 mmHg 60%
    10:00 +8°C° 0 mm 0 mps 592 mmHg 60%
    11:00 +9°C° 0 mm 0 mps 592 mmHg 58%
    12:00 +11°C° 0 mm 1 mps 592 mmHg 56%
    13:00 +12°C° 0 mm 1 mps 592 mmHg 54%
    14:00 +11°C° 0 mm 1 mps 591 mmHg 58%
    15:00 +10°C° 0 mm 1 mps 591 mmHg 61%
    16:00 +9°C° 0 mm 1 mps 590 mmHg 65%
    17:00 +7°C° 0 mm 1 mps 589 mmHg 67%
    18:00 +5°C° 0 mm 1 mps 588 mmHg 69%
    19:00 +3°C° 0 mm 1 mps 588 mmHg 71%
    20:00 +3°C° 0 mm 1 mps 588 mmHg 69%
    21:00 +3°C° 0 mm 1 mps 588 mmHg 66%
    22:00 +3°C° 0 mm 1 mps 587 mmHg 64%
    23:00 +3°C° 0 mm 1 mps 587 mmHg 62%

    27 October, Friday

    Time Temperature Precipitation Wind Pressure Humidity
    00:00 +3°C° 0 mm 1 mps 587 mmHg 61%
    01:00 +2°C° 0 mm 2 mps 587 mmHg 59%
    02:00 +2°C° 0 mm 2 mps 586 mmHg 58%
    03:00 +2°C° 0 mm 2 mps 586 mmHg 57%
    04:00 +1°C° 0 mm 2 mps 586 mmHg 57%
    05:00 +1°C° 0 mm 2 mps 586 mmHg 57%
    06:00 +1°C° 0 mm 2 mps 585 mmHg 57%
    07:00 +1°C° 0 mm 2 mps 585 mmHg 58%
    08:00 +5°C° 0 mm 1 mps 586 mmHg 57%
    09:00 +7°C° 0 mm 1 mps 587 mmHg 57%
    10:00 +9°C° 0 mm 1 mps 588 mmHg 57%
    11:00 +10°C° 0 mm 1 mps 588 mmHg 56%
    12:00 +11°C° 0 mm 1 mps 588 mmHg 54%
    13:00 +12°C° 0 mm 1 mps 588 mmHg 53%
    14:00 +11°C° 0 mm 1 mps 587 mmHg 57%
    15:00 +8°C° 0 mm 2 mps 586 mmHg 61%
    16:00 +7°C° 0 mm 2 mps 585 mmHg 65%
    17:00 +6°C° 0 mm 2 mps 584 mmHg 67%
    18:00 +4°C° 0 mm 2 mps 583 mmHg 69%
    19:00 +2°C° 0 mm 2 mps 582 mmHg 71%
    20:00 +2°C° 0.1 mm 2 mps 582 mmHg 72%
    21:00 +2°C° 0.1 mm 2 mps 582 mmHg 74%
    22:00 +2°C° 0.1 mm 2 mps 581 mmHg 76%
    23:00 +2°C° 0.2 mm 2 mps 581 mmHg 77%
    Show more